Time,TemperatureF,DewpointF,PressureIn,WindDirection,WindDirectionDegrees,WindSpeedMPH,WindSpeedGustMPH,Humidity,HourlyPrecipIn,Conditions,Clouds,dailyrainin,SoftwareType,DateUTC
2013-03-31 00:00:00,63.4,34.5,29.93,SW,225,0.0,0.0,34,0.00,,,0.00,Wunderground v.1.15,2013-03-31 05:00:00,
2013-03-31 00:10:00,63.4,34.5,29.93,SW,225,0.0,0.0,34,0.00,,,0.00,Wunderground v.1.15,2013-03-31 05:10:00,
2013-03-31 00:20:00,63.6,34.7,29.93,SW,225,0.0,0.0,34,0.00,,,0.00,Wunderground v.1.15,2013-03-31 05:20:00,
2013-03-31 00:30:00,63.6,34.7,29.93,SW,225,0.0,0.0,34,0.00,,,0.00,Wunderground v.1.15,2013-03-31 05:30:00,
2013-03-31 00:40:00,63.5,34.6,29.93,SW,225,0.0,0.0,34,0.00,,,0.00,Wunderground v.1.15,2013-03-31 05:40:00,
2013-03-31 00:50:00,63.5,34.6,29.93,SW,225,0.0,0.0,34,0.00,,,0.00,Wunderground v.1.15,2013-03-31 05:50:00,
2013-03-31 01:00:00,63.4,34.5,29.92,SW,225,0.0,0.0,34,0.00,,,0.00,Wunderground v.1.15,2013-03-31 06:00:00,
2013-03-31 01:10:00,63.6,34.7,29.92,SW,225,0.0,0.0,34,0.00,,,0.00,Wunderground v.1.15,2013-03-31 06:10:00,
2013-03-31 01:20:00,64.0,35.0,29.92,SW,225,0.0,0.0,34,0.00,,,0.00,Wunderground v.1.15,2013-03-31 06:20:00,
2013-03-31 01:30:00,63.9,35.0,29.92,SW,225,0.0,0.0,34,0.00,,,0.00,Wunderground v.1.15,2013-03-31 06:30:00,
2013-03-31 01:40:00,64.0,35.0,29.93,SW,225,0.0,0.0,34,0.00,,,0.00,Wunderground v.1.15,2013-03-31 06:40:00,
2013-03-31 01:50:00,64.0,35.0,29.93,SW,225,0.0,0.0,34,0.00,,,0.00,Wunderground v.1.15,2013-03-31 06:50:00,
2013-03-31 02:00:00,64.1,35.1,29.93,SW,225,0.0,0.0,34,0.00,,,0.00,Wunderground v.1.15,2013-03-31 07:00:00,
2013-03-31 02:10:00,64.2,35.2,29.92,SW,225,0.0,0.0,34,0.00,,,0.00,Wunderground v.1.15,2013-03-31 07:10:00,
2013-03-31 02:20:00,64.3,35.3,29.92,SW,225,0.0,0.0,34,0.00,,,0.00,Wunderground v.1.15,2013-03-31 07:20:00,
2013-03-31 02:25:00,64.3,35.3,29.92,SW,225,0.0,0.0,34,0.00,,,0.00,Wunderground v.1.15,2013-03-31 07:25:00,
2013-03-31 02:30:00,64.3,35.3,29.92,SW,225,0.0,0.0,34,0.00,,,0.00,Wunderground v.1.15,2013-03-31 07:30:00,
2013-03-31 02:40:00,64.4,35.4,29.92,SW,225,0.0,0.0,34,0.00,,,0.00,Wunderground v.1.15,2013-03-31 07:40:00,
2013-03-31 02:50:00,64.5,35.5,29.91,SW,225,0.0,0.0,34,0.00,,,0.00,Wunderground v.1.15,2013-03-31 07:50:00,
2013-03-31 03:00:00,64.5,35.5,29.91,SW,225,0.0,0.0,34,0.00,,,0.00,Wunderground v.1.15,2013-03-31 08:00:00,
2013-03-31 03:10:00,64.5,35.5,29.90,SW,225,0.0,0.0,34,0.00,,,0.00,Wunderground v.1.15,2013-03-31 08:10:00,
2013-03-31 03:20:00,64.5,35.5,29.90,SW,225,0.0,0.0,34,0.00,,,0.00,Wunderground v.1.15,2013-03-31 08:20:00,
2013-03-31 03:30:00,64.5,35.5,29.90,SW,225,0.0,0.0,34,0.00,,,0.00,Wunderground v.1.15,2013-03-31 08:30:00,
2013-03-31 03:40:00,64.5,35.5,29.90,SW,225,0.0,0.0,34,0.00,,,0.00,Wunderground v.1.15,2013-03-31 08:40:00,
2013-03-31 03:50:00,64.7,35.7,29.90,SW,225,0.0,0.0,34,0.00,,,0.00,Wunderground v.1.15,2013-03-31 08:50:00,
2013-03-31 04:00:00,64.7,35.7,29.89,SW,225,0.0,0.0,34,0.00,,,0.00,Wunderground v.1.15,2013-03-31 09:00:00,
2013-03-31 04:10:00,64.7,35.7,29.88,SW,225,0.0,0.0,34,0.00,,,0.00,Wunderground v.1.15,2013-03-31 09:10:00,
2013-03-31 04:20:00,64.8,35.8,29.88,SW,225,0.0,0.0,34,0.00,,,0.00,Wunderground v.1.15,2013-03-31 09:20:00,
2013-03-31 04:30:00,64.8,35.8,29.88,SW,225,0.0,0.0,34,0.00,,,0.00,Wunderground v.1.15,2013-03-31 09:30:00,
2013-03-31 04:40:00,64.8,35.8,29.88,SW,225,0.0,0.0,34,0.00,,,0.00,Wunderground v.1.15,2013-03-31 09:40:00,
2013-03-31 04:50:00,64.9,35.8,29.88,SW,216,0.0,3.0,34,0.00,,,0.00,Wunderground v.1.15,2013-03-31 09:50:00,
2013-03-31 04:55:00,64.8,35.8,29.88,SW,215,0.0,3.0,34,0.00,,,0.00,Wunderground v.1.15,2013-03-31 09:55:00,
2013-03-31 05:00:00,64.8,35.8,29.88,SW,216,0.0,0.0,34,0.00,,,0.00,Wunderground v.1.15,2013-03-31 10:00:00,
2013-03-31 05:10:00,64.7,35.7,29.88,SW,215,0.0,0.0,34,0.00,,,0.00,Wunderground v.1.15,2013-03-31 10:10:00,
2013-03-31 05:20:00,64.7,35.7,29.88,SW,216,0.0,0.0,34,0.00,,,0.00,Wunderground v.1.15,2013-03-31 10:20:00,
2013-03-31 05:30:00,64.6,35.6,29.89,SW,221,0.0,0.0,34,0.00,,,0.00,Wunderground v.1.15,2013-03-31 10:30:00,
2013-03-31 05:40:00,64.6,35.6,29.89,SW,221,0.0,0.0,34,0.00,,,0.00,Wunderground v.1.15,2013-03-31 10:40:00,
2013-03-31 05:50:00,64.7,35.7,29.88,SW,221,0.0,0.0,34,0.00,,,0.00,Wunderground v.1.15,2013-03-31 10:50:00,
2013-03-31 05:55:00,64.6,35.6,29.88,SW,221,0.0,0.0,34,0.00,,,0.00,Wunderground v.1.15,2013-03-31 10:55:00,
2013-03-31 06:05:00,64.7,35.7,29.88,SW,221,0.0,0.0,34,0.00,,,0.00,Wunderground v.1.15,2013-03-31 11:05:00,
2013-03-31 06:10:00,64.7,35.7,29.88,SW,221,0.0,0.0,34,0.00,,,0.00,Wunderground v.1.15,2013-03-31 11:10:00,
2013-03-31 06:20:00,64.7,35.7,29.88,SW,221,0.0,0.0,34,0.00,,,0.00,Wunderground v.1.15,2013-03-31 11:20:00,
2013-03-31 06:30:00,64.7,35.7,29.88,SW,221,0.0,0.0,34,0.00,,,0.00,Wunderground v.1.15,2013-03-31 11:30:00,
2013-03-31 06:40:00,64.8,35.8,29.89,SW,221,0.0,0.0,34,0.00,,,0.00,Wunderground v.1.15,2013-03-31 11:40:00,
2013-03-31 06:45:00,64.8,35.8,29.89,SW,221,0.0,0.0,34,0.00,,,0.00,Wunderground v.1.15,2013-03-31 11:45:00,
2013-03-31 06:50:00,64.8,35.8,29.89,SW,221,0.0,0.0,34,0.00,,,0.00,Wunderground v.1.15,2013-03-31 11:50:00,
2013-03-31 07:00:00,64.8,35.8,29.89,SW,221,0.0,0.0,34,0.00,,,0.00,Wunderground v.1.15,2013-03-31 12:00:00,
2013-03-31 07:10:00,64.7,35.7,29.90,SW,221,0.0,0.0,34,0.00,,,0.00,Wunderground v.1.15,2013-03-31 12:10:00,
2013-03-31 07:20:00,64.7,35.7,29.90,SW,221,0.0,0.0,34,0.00,,,0.00,Wunderground v.1.15,2013-03-31 12:20:00,
2013-03-31 07:25:00,64.7,35.7,29.89,SW,221,0.0,0.0,34,0.00,,,0.00,Wunderground v.1.15,2013-03-31 12:25:00,
2013-03-31 07:30:00,64.7,35.7,29.90,SW,221,0.0,0.0,34,0.00,,,0.00,Wunderground v.1.15,2013-03-31 12:30:00,
2013-03-31 07:40:00,64.7,35.7,29.90,SW,221,0.0,1.0,34,0.00,,,0.00,Wunderground v.1.15,2013-03-31 12:40:00,
2013-03-31 07:50:00,64.8,35.8,29.90,SW,219,1.0,1.0,34,0.00,,,0.00,Wunderground v.1.15,2013-03-31 12:50:00,
2013-03-31 08:00:00,64.8,35.8,29.90,SW,220,0.0,0.0,34,0.00,,,0.00,Wunderground v.1.15,2013-03-31 13:00:00,
2013-03-31 08:10:00,65.0,35.9,29.90,SW,220,0.0,0.0,34,0.00,,,0.00,Wunderground v.1.15,2013-03-31 13:10:00,
2013-03-31 08:15:00,65.1,36.0,29.90,SW,220,0.0,0.0,34,0.00,,,0.00,Wunderground v.1.15,2013-03-31 13:15:00,
2013-03-31 08:20:00,65.2,36.1,29.90,SW,219,0.0,0.0,34,0.00,,,0.00,Wunderground v.1.15,2013-03-31 13:20:00,
2013-03-31 08:30:00,65.6,36.5,29.90,SW,219,0.0,0.0,34,0.00,,,0.00,Wunderground v.1.15,2013-03-31 13:30:00,
2013-03-31 08:35:00,65.8,36.6,29.90,SW,219,0.0,0.0,34,0.00,,,0.00,Wunderground v.1.15,2013-03-31 13:35:00,
2013-03-31 08:40:00,65.8,36.6,29.90,SW,220,0.0,0.0,34,0.00,,,0.00,Wunderground v.1.15,2013-03-31 13:40:00,
2013-03-31 08:50:00,65.8,36.6,29.89,South,188,1.0,1.0,34,0.00,,,0.00,Wunderground v.1.15,2013-03-31 13:50:00,
2013-03-31 09:00:00,66.0,36.8,29.89,SSW,206,1.0,1.0,34,0.00,,,0.00,Wunderground v.1.15,2013-03-31 14:00:00,
2013-03-31 09:10:00,66.4,37.2,29.89,SSW,206,0.0,0.0,34,0.00,,,0.00,Wunderground v.1.15,2013-03-31 14:10:00,
2013-03-31 09:20:00,66.8,36.8,29.90,SSW,210,0.0,1.0,33,0.00,,,0.00,Wunderground v.1.15,2013-03-31 14:20:00,
2013-03-31 09:30:00,67.7,37.5,29.89,SSW,211,0.0,0.0,33,0.00,,,0.00,Wunderground v.1.15,2013-03-31 14:30:00,
2013-03-31 09:40:00,68.1,37.9,29.87,SSW,208,1.0,1.0,33,0.00,,,0.00,Wunderground v.1.15,2013-03-31 14:40:00,
2013-03-31 09:50:00,68.5,39.0,29.87,SSW,211,1.0,1.0,34,0.00,,,0.00,Wunderground v.1.15,2013-03-31 14:50:00,
2013-03-31 09:55:00,68.1,40.8,29.87,SSW,211,1.0,1.0,37,0.00,,,0.00,Wunderground v.1.15,2013-03-31 14:55:00,
2013-03-31 10:00:00,68.1,41.5,29.87,SSE,152,1.0,1.0,38,0.00,,,0.00,Wunderground v.1.15,2013-03-31 15:00:00,
2013-03-31 10:10:00,69.7,47.4,29.87,SSW,194,2.0,2.0,45,0.00,,,0.00,Wunderground v.1.15,2013-03-31 15:10:00,
2013-03-31 10:20:00,72.4,53.2,29.88,South,182,2.0,2.0,51,0.00,,,0.00,Wunderground v.1.15,2013-03-31 15:20:00,
2013-03-31 10:30:00,72.5,54.4,29.88,SSW,206,1.0,3.0,53,0.00,,,0.00,Wunderground v.1.15,2013-03-31 15:30:00,
2013-03-31 10:40:00,71.5,51.9,29.89,South,187,1.0,1.0,50,0.00,,,0.00,Wunderground v.1.15,2013-03-31 15:40:00,
2013-03-31 10:45:00,71.5,51.9,29.89,SW,214,0.0,2.0,50,0.00,,,0.00,Wunderground v.1.15,2013-03-31 15:45:00,
2013-03-31 10:55:00,71.8,52.2,29.88,South,181,1.0,2.0,50,0.00,,,0.00,Wunderground v.1.15,2013-03-31 15:55:00,
2013-03-31 11:00:00,72.1,53.0,29.88,South,186,1.0,3.0,51,0.00,,,0.00,Wunderground v.1.15,2013-03-31 16:00:00,
2013-03-31 11:10:00,72.8,54.1,29.88,South,190,2.0,3.0,52,0.00,,,0.00,Wunderground v.1.15,2013-03-31 16:10:00,
2013-03-31 11:20:00,75.4,58.1,29.88,SW,216,1.0,1.0,55,0.00,,,0.00,Wunderground v.1.15,2013-03-31 16:20:00,
2013-03-31 11:25:00,75.4,58.6,29.88,South,176,1.0,1.0,56,0.00,,,0.00,Wunderground v.1.15,2013-03-31 16:25:00,
2013-03-31 11:35:00,74.6,56.9,29.88,SSW,200,1.0,1.0,54,0.00,,,0.00,Wunderground v.1.15,2013-03-31 16:35:00,
2013-03-31 11:40:00,75.6,57.3,29.88,SSW,200,0.0,0.0,53,0.00,,,0.00,Wunderground v.1.15,2013-03-31 16:40:00,
2013-03-31 11:50:00,77.3,61.4,29.89,SSW,208,0.0,0.0,58,0.00,,,0.00,Wunderground v.1.15,2013-03-31 16:50:00,
2013-03-31 12:00:00,76.0,59.7,29.88,SSW,200,0.0,3.0,57,0.00,,,0.00,Wunderground v.1.15,2013-03-31 17:00:00,
2013-03-31 12:05:00,75.7,58.9,29.88,SSW,209,1.0,3.0,56,0.00,,,0.00,Wunderground v.1.15,2013-03-31 17:05:00,
2013-03-31 12:15:00,77.1,60.7,29.89,SSW,202,0.0,1.0,57,0.00,,,0.00,Wunderground v.1.15,2013-03-31 17:15:00,
2013-03-31 12:20:00,78.0,62.0,29.89,SSW,207,0.0,1.0,58,0.00,,,0.00,Wunderground v.1.15,2013-03-31 17:20:00,
2013-03-31 12:30:00,77.0,61.1,29.89,South,174,0.0,0.0,58,0.00,,,0.00,Wunderground v.1.15,2013-03-31 17:30:00,
2013-03-31 12:40:00,76.0,59.2,29.88,SSE,156,1.0,1.0,56,0.00,,,0.00,Wunderground v.1.15,2013-03-31 17:40:00,
2013-03-31 12:45:00,76.7,59.8,29.88,South,191,1.0,1.0,56,0.00,,,0.00,Wunderground v.1.15,2013-03-31 17:45:00,
2013-03-31 12:50:00,77.7,61.7,29.88,South,174,1.0,2.0,58,0.00,,,0.00,Wunderground v.1.15,2013-03-31 17:50:00,
2013-03-31 13:00:00,78.8,63.3,29.89,South,187,0.0,4.0,59,0.00,,,0.00,Wunderground v.1.15,2013-03-31 18:00:00,
2013-03-31 13:10:00,79.3,63.2,29.88,SSE,168,1.0,1.0,58,0.00,,,0.00,Wunderground v.1.15,2013-03-31 18:10:00,
2013-03-31 13:20:00,78.7,62.7,29.87,South,186,1.0,1.0,58,0.00,,,0.00,Wunderground v.1.15,2013-03-31 18:20:00,
2013-03-31 13:25:00,78.5,62.5,29.87,South,183,0.0,1.0,58,0.00,,,0.00,Wunderground v.1.15,2013-03-31 18:25:00,
2013-03-31 13:30:00,78.7,62.7,29.87,South,184,0.0,0.0,58,0.00,,,0.00,Wunderground v.1.15,2013-03-31 18:30:00,
2013-03-31 13:40:00,78.7,62.7,29.87,SW,221,0.0,2.0,58,0.00,,,0.00,Wunderground v.1.15,2013-03-31 18:40:00,
2013-03-31 13:50:00,78.4,62.4,29.87,SSW,192,1.0,1.0,58,0.00,,,0.00,Wunderground v.1.15,2013-03-31 18:50:00,
2013-03-31 14:00:00,78.5,62.0,29.88,SSW,192,0.0,0.0,57,0.00,,,0.00,Wunderground v.1.15,2013-03-31 19:00:00,
2013-03-31 14:10:00,78.1,61.6,29.88,SSW,192,0.0,0.0,57,0.00,,,0.00,Wunderground v.1.15,2013-03-31 19:10:00,
2013-03-31 14:15:00,78.0,61.5,29.88,SSW,192,0.0,0.0,57,0.00,,,0.00,Wunderground v.1.15,2013-03-31 19:15:00,
2013-03-31 14:20:00,77.7,61.3,29.87,SSW,192,0.0,0.0,57,0.00,,,0.00,Wunderground v.1.15,2013-03-31 19:20:00,
2013-03-31 14:30:00,77.4,62.9,29.89,NNW,331,1.0,5.0,61,0.00,,,0.00,Wunderground v.1.15,2013-03-31 19:30:00,
2013-03-31 14:40:00,71.9,57.7,29.90,NNW,331,5.0,5.0,61,0.00,,,0.00,Wunderground v.1.15,2013-03-31 19:40:00,
2013-03-31 14:50:00,67.9,52.6,29.89,NNW,327,3.0,5.0,58,0.00,,,0.00,Wunderground v.1.15,2013-03-31 19:50:00,
2013-03-31 15:00:00,64.5,47.0,29.91,ENE,74,2.0,4.0,53,0.00,,,0.00,Wunderground v.1.15,2013-03-31 20:00:00,
2013-03-31 15:10:00,61.2,40.2,29.89,NNW,344,2.0,2.0,46,0.00,,,0.00,Wunderground v.1.15,2013-03-31 20:10:00,
2013-03-31 15:15:00,60.1,37.5,29.89,NNW,341,2.0,2.0,43,0.00,,,0.00,Wunderground v.1.15,2013-03-31 20:15:00,
2013-03-31 15:20:00,59.4,35.7,29.90,NW,321,1.0,1.0,41,0.00,,,0.00,Wunderground v.1.15,2013-03-31 20:20:00,
2013-03-31 15:30:00,59.0,34.7,29.89,North,355,2.0,3.0,40,0.00,,,0.00,Wunderground v.1.15,2013-03-31 20:30:00,
2013-03-31 15:40:00,58.3,33.4,29.90,North,5,1.0,1.0,39,0.00,,,0.00,Wunderground v.1.15,2013-03-31 20:40:00,
2013-03-31 15:50:00,58.0,33.2,29.90,North,10,1.0,1.0,39,0.00,,,0.00,Wunderground v.1.15,2013-03-31 20:50:00,
2013-03-31 16:00:00,58.1,32.6,29.90,NW,324,0.0,0.0,38,0.00,,,0.00,Wunderground v.1.15,2013-03-31 21:00:00,
2013-03-31 16:05:00,58.0,32.5,29.90,NE,34,0.0,0.0,38,0.00,,,0.00,Wunderground v.1.15,2013-03-31 21:05:00,
2013-03-31 16:10:00,58.0,31.8,29.90,NE,38,0.0,0.0,37,0.00,,,0.00,Wunderground v.1.15,2013-03-31 21:10:00,
2013-03-31 16:20:00,58.0,31.8,29.87,NE,37,0.0,0.0,37,0.00,,,0.00,Wunderground v.1.15,2013-03-31 21:20:00,
2013-03-31 16:30:00,57.8,31.7,29.86,NE,46,1.0,1.0,37,0.00,,,0.00,Wunderground v.1.15,2013-03-31 21:30:00,
2013-03-31 16:40:00,57.8,31.7,29.84,NE,51,1.0,1.0,37,0.00,,,0.00,Wunderground v.1.15,2013-03-31 21:40:00,
2013-03-31 16:50:00,57.9,31.8,29.87,NE,50,0.0,3.0,37,0.00,,,0.00,Wunderground v.1.15,2013-03-31 21:50:00,
2013-03-31 17:00:00,58.0,31.8,29.87,East,91,1.0,1.0,37,0.00,,,0.00,Wunderground v.1.15,2013-03-31 22:00:00,
2013-03-31 17:05:00,58.0,31.8,29.86,East,92,0.0,1.0,37,0.00,,,0.00,Wunderground v.1.15,2013-03-31 22:05:00,
2013-03-31 17:10:00,58.1,31.9,29.86,East,91,0.0,0.0,37,0.00,,,0.00,Wunderground v.1.15,2013-03-31 22:10:00,
2013-03-31 17:20:00,58.2,32.0,29.87,East,92,0.0,0.0,37,0.00,,,0.00,Wunderground v.1.15,2013-03-31 22:20:00,
2013-03-31 17:30:00,58.3,32.1,29.85,East,92,0.0,0.0,37,0.00,,,0.00,Wunderground v.1.15,2013-03-31 22:30:00,
2013-03-31 17:40:00,58.3,32.1,29.85,South,185,0.0,0.0,37,0.00,,,0.00,Wunderground v.1.15,2013-03-31 22:40:00,
2013-03-31 17:50:00,58.4,31.5,29.86,South,189,0.0,0.0,36,0.00,,,0.00,Wunderground v.1.15,2013-03-31 22:50:00,
2013-03-31 18:00:00,58.6,31.7,29.85,SW,217,0.0,0.0,36,0.00,,,0.00,Wunderground v.1.15,2013-03-31 23:00:00,
2013-03-31 18:10:00,58.9,32.0,29.84,SW,214,0.0,0.0,36,0.00,,,0.00,Wunderground v.1.15,2013-03-31 23:10:00,
2013-03-31 18:20:00,59.0,32.1,29.83,SW,214,0.0,0.0,36,0.00,,,0.00,Wunderground v.1.15,2013-03-31 23:20:00,
2013-03-31 18:25:00,59.0,32.1,29.83,SW,215,0.0,0.0,36,0.00,,,0.00,Wunderground v.1.15,2013-03-31 23:25:00,
2013-03-31 18:30:00,59.0,32.1,29.83,SW,215,0.0,0.0,36,0.00,,,0.00,Wunderground v.1.15,2013-03-31 23:30:00,
2013-03-31 18:40:00,59.6,32.6,29.84,SW,214,0.0,1.0,36,0.00,,,0.00,Wunderground v.1.15,2013-03-31 23:40:00,
2013-03-31 18:50:00,59.9,32.9,29.83,SW,221,1.0,1.0,36,0.00,,,0.00,Wunderground v.1.15,2013-03-31 23:50:00,
2013-03-31 19:00:00,60.1,33.0,29.83,SW,221,0.0,0.0,36,0.00,,,0.00,Wunderground v.1.15,2013-04-01 00:00:00,
2013-03-31 19:05:00,60.2,33.1,29.83,SW,221,0.0,0.0,36,0.00,,,0.00,Wunderground v.1.15,2013-04-01 00:05:00,
2013-03-31 19:10:00,60.3,33.2,29.84,SW,221,0.0,2.0,36,0.00,,,0.00,Wunderground v.1.15,2013-04-01 00:10:00,
2013-03-31 19:20:00,60.5,33.4,29.82,SW,221,0.0,0.0,36,0.00,,,0.00,Wunderground v.1.15,2013-04-01 00:20:00,
2013-03-31 19:30:00,60.6,33.5,29.82,SW,221,0.0,0.0,36,0.00,,,0.00,Wunderground v.1.15,2013-04-01 00:30:00,
2013-03-31 19:40:00,60.6,33.5,29.83,SW,221,0.0,0.0,36,0.00,,,0.00,Wunderground v.1.15,2013-04-01 00:40:00,
2013-03-31 19:50:00,60.8,33.7,29.83,SW,221,0.0,0.0,36,0.00,,,0.00,Wunderground v.1.15,2013-04-01 00:50:00,
2013-03-31 19:55:00,60.8,33.0,29.82,SW,221,0.0,0.0,35,0.00,,,0.00,Wunderground v.1.15,2013-04-01 00:55:00,
2013-03-31 20:00:00,60.8,33.0,29.83,SW,221,0.0,0.0,35,0.00,,,0.00,Wunderground v.1.15,2013-04-01 01:00:00,
2013-03-31 20:10:00,60.6,32.8,29.82,SW,221,0.0,0.0,35,0.00,,,0.00,Wunderground v.1.15,2013-04-01 01:10:00,
2013-03-31 20:20:00,60.4,33.3,29.82,SW,221,0.0,0.0,36,0.00,,,0.00,Wunderground v.1.15,2013-04-01 01:20:00,
2013-03-31 20:30:00,60.3,33.2,29.82,SW,221,0.0,0.0,36,0.00,,,0.00,Wunderground v.1.15,2013-04-01 01:30:00,
2013-03-31 20:40:00,60.5,33.4,29.83,SW,221,0.0,0.0,36,0.00,,,0.00,Wunderground v.1.15,2013-04-01 01:40:00,
2013-03-31 20:50:00,60.4,33.3,29.84,NNE,26,0.0,0.0,36,0.00,,,0.00,Wunderground v.1.15,2013-04-01 01:50:00,
2013-03-31 20:55:00,60.3,33.2,29.84,NNE,26,0.0,0.0,36,0.00,,,0.00,Wunderground v.1.15,2013-04-01 01:55:00,
2013-03-31 21:00:00,60.1,32.3,29.84,NNE,26,0.0,0.0,35,0.00,,,0.00,Wunderground v.1.15,2013-04-01 02:00:00,
2013-03-31 21:10:00,59.9,32.9,29.84,NNE,24,0.0,0.0,36,0.00,,,0.00,Wunderground v.1.15,2013-04-01 02:10:00,
2013-03-31 21:20:00,59.9,32.9,29.85,NNE,24,0.0,0.0,36,0.00,,,0.00,Wunderground v.1.15,2013-04-01 02:20:00,
2013-03-31 21:30:00,60.0,32.9,29.86,North,360,0.0,0.0,36,0.00,,,0.00,Wunderground v.1.15,2013-04-01 02:30:00,
2013-03-31 21:40:00,59.8,32.8,29.87,North,360,0.0,0.0,36,0.00,,,0.00,Wunderground v.1.15,2013-04-01 02:40:00,
2013-03-31 21:45:00,59.8,32.8,29.87,North,360,0.0,0.0,36,0.00,,,0.00,Wunderground v.1.15,2013-04-01 02:45:00,
2013-03-31 21:50:00,59.6,32.6,29.87,NNW,348,0.0,0.0,36,0.00,,,0.00,Wunderground v.1.15,2013-04-01 02:50:00,
2013-03-31 22:00:00,59.6,32.6,29.89,NNW,348,0.0,0.0,36,0.00,,,0.00,Wunderground v.1.15,2013-04-01 03:00:00,
2013-03-31 22:10:00,59.6,32.6,29.89,NNW,348,0.0,0.0,36,0.00,,,0.00,Wunderground v.1.15,2013-04-01 03:10:00,
2013-03-31 22:20:00,59.7,32.7,29.90,NNW,348,0.0,0.0,36,0.00,,,0.00,Wunderground v.1.15,2013-04-01 03:20:00,
2013-03-31 22:30:00,59.8,32.8,29.91,NNW,348,0.0,0.0,36,0.00,,,0.00,Wunderground v.1.15,2013-04-01 03:30:00,
2013-03-31 22:35:00,59.8,32.8,29.91,NNW,348,0.0,0.0,36,0.00,,,0.00,Wunderground v.1.15,2013-04-01 03:35:00,
2013-03-31 22:45:00,59.8,32.8,29.91,NNW,348,0.0,1.0,36,0.00,,,0.00,Wunderground v.1.15,2013-04-01 03:45:00,
2013-03-31 22:50:00,59.8,32.8,29.91,NNW,348,0.0,0.0,36,0.00,,,0.00,Wunderground v.1.15,2013-04-01 03:50:00,
2013-03-31 22:55:00,59.8,32.8,29.92,NNW,348,0.0,0.0,36,0.00,,,0.00,Wunderground v.1.15,2013-04-01 03:55:00,
2013-03-31 23:00:00,59.8,32.8,29.92,NNW,348,0.0,0.0,36,0.00,,,0.00,Wunderground v.1.15,2013-04-01 04:00:00,
2013-03-31 23:05:00,59.8,32.8,29.91,NNW,348,0.0,0.0,36,0.00,,,0.00,Wunderground v.1.15,2013-04-01 04:05:00,
2013-03-31 23:15:00,59.8,32.8,29.91,NNW,348,0.0,0.0,36,0.00,,,0.00,Wunderground v.1.15,2013-04-01 04:15:00,
2013-03-31 23:20:00,59.8,32.1,29.91,NNW,348,0.0,0.0,35,0.00,,,0.00,Wunderground v.1.15,2013-04-01 04:20:00,
2013-03-31 23:25:00,59.8,32.1,29.91,NNW,348,0.0,0.0,35,0.00,,,0.00,Wunderground v.1.15,2013-04-01 04:25:00,
2013-03-31 23:30:00,59.8,32.1,29.91,NNW,348,0.0,0.0,35,0.00,,,0.00,Wunderground v.1.15,2013-04-01 04:30:00,
2013-03-31 23:35:00,59.8,32.1,29.91,NNW,348,0.0,0.0,35,0.00,,,0.00,Wunderground v.1.15,2013-04-01 04:35:00,
2013-03-31 23:40:00,59.9,32.2,29.91,NNW,348,0.0,0.0,35,0.00,,,0.00,Wunderground v.1.15,2013-04-01 04:40:00,
2013-03-31 23:50:00,59.9,32.2,29.91,NNW,348,0.0,0.0,35,0.00,,,0.00,Wunderground v.1.15,2013-04-01 04:50:00,